Regional Weather Roundup
Issued by NWS

Home | Current Version | Previous Version | Graphics & Text | Print | Product List | Glossary On
Versions: 1 2 3 4 5 6 7 8 9 10 11 12 13 14 15 16 17 18 19 20 21 22 23 24 25 26 27 28 29 30 31 32 33 34 35 36 37 38 39 40 41 42 43 44 45 46 47 48 49 50
000
ASUS45 KPSR 230200
RWRAZ

ARIZONA HOURLY REGIONAL WEATHER ROUNDUP
NATIONAL WEATHER SERVICE PHOENIX AZ
700 PM MST FRI MAY 22 2015

NOTE: FAIR INDICATES FEW OR NO CLOUDS BELOW 12,000 FEET WITH NO
SIGNIFICANT WEATHER AND/OR OBSTRUCTIONS TO VISIBILITY.

AZZ001>003-036-230300-
NORTHWEST ARIZONA

CITY           SKY/WX    TMP DP  RH WIND       PRES   REMARKS
KINGMAN        MOCLDY    59  36  42 SW12      29.93R
$$

AZZ004>008-015-016-018-230300-
NORTH CENTRAL ARIZONA

CITY           SKY/WX    TMP DP  RH WIND       PRES   REMARKS
GRAND CANYON   MOCLDY    39  36  89 W6        30.02S WCI  35
WILLIAMS       LGT RAIN  39  36  87 NW6G14    30.10R WCI  35
PRESCOTT       CLOUDY    56  25  30 W9        29.98R
FLAGSTAFF      NOT AVBL
PAYSON         PTCLDY    57  32  38 SW8G15    30.00R
PAGE           MOCLDY    60  33  36 SW8G17    29.91R
$$

AZZ009>014-017-230300-
NORTHEAST ARIZONA

CITY           SKY/WX    TMP DP  RH WIND       PRES   REMARKS
WINSLOW        NOT AVBL
SAINT JOHNS    PTCLDY    61  22  22 SW23G31   29.94R
WINDOW ROCK    CLOUDY    60  15  17 SW20G35   29.96R
$$

AZZ023-230300-
GREATER PHOENIX AREA

CITY           SKY/WX    TMP DP  RH WIND       PRES   REMARKS
PHOENIX        PTCLDY    77  34  21 W22       29.86R
BUCKEYE        CLEAR     73  34  23 SW13G20   29.88R
GLENDALE       PTCLDY    75  34  22 S15       29.88R
LUKE AFB       CLEAR     75  35  23 SW15      29.86R
DEER VALLEY    PTCLDY    72  31  22 SW14      29.87R
SCOTTSDALE     CLOUDY    74  33  22 W15G23    29.89R
MESA-FALCON    PTCLDY    75  34  22 W14       29.87R
MESA-GATEWAY   MOCLDY    75  37  25 W17       29.89R
CHANDLER       MOCLDY    75  34  22 MISG      29.87
$$

AZZ027-028-230300-
SOUTHWEST MARICOPA COUNTY AND PINAL COUNTY

CITY           SKY/WX    TMP DP  RH WIND       PRES   REMARKS
CASA GRANDE    PTCLDY    73  36  25 W20       29.87R
GILA BEND      FAIR      75  34  22 W12       29.87R
$$

AZZ503-504-507>509-230300-
SOUTHEAST ARIZONA

CITY           SKY/WX    TMP DP  RH WIND       PRES   REMARKS
TUCSON         PTCLDY    74  32  21 W16       29.93R
DAVIS-MONTHAN  PTCLDY    73  31  21 W16       29.91R
RYAN FIELD       N/A     75  39  27 SW12      29.92R
NOGALES        CLEAR     67  32  27 SW13      29.98R
SIERRA VISTA   CLEAR     67  25  20 SW17G25   29.99R
SAFFORD        CLEAR     76  21  12 W21G31    29.84R
$$

AZZ020-021-025-026-031-230300-
SOUTHWEST ARIZONA

CITY           SKY/WX    TMP DP  RH WIND       PRES   REMARKS
YUMA           CLEAR     74  42  31 NW14G23   29.89R
$$

CAZ031-033-041-043-047-048-061-230300-
SOUTHERN CALIFORNIA

CITY           SKY/WX    TMP DP  RH WIND       PRES   REMARKS
DOWNTOWN L.A.  CLOUDY    63  52  67 W6        30.02R
L.A. AIRPORT   MOCLDY    61  56  83 SW12      30.03S
SAN DIEGO      MOCLDY    65  50  58 W9        30.07R
BURBANK        CLOUDY    62  48  60 SE8       30.02R
ONTARIO        CLOUDY    61  48  62 W6        30.02S
RIVERSIDE      CLOUDY    62  49  62 W7        30.03R
PALM SPRINGS   CLEAR     71  44  37 NW17G28   29.89R
EL CENTRO NAS  CLEAR     72  43  35 W24G33    29.92S
IMPERIAL       CLEAR     71  45  39 W23G32    29.89S
BLYTHE         PTCLDY    75  42  30 SW18      29.85R
$$

NVZ020-UTZ003-230300-
SOUTHERN NEVADA-UTAH

CITY           SKY/WX    TMP DP  RH WIND       PRES   REMARKS
LAS VEGAS      NOT AVBL
SALT LAKE CITY CLOUDY    62  40  44 S5        29.87R
$$

NMZ009-TXZ055-230300-
NEW MEXICO-WEST TEXAS

CITY           SKY/WX    TMP DP  RH WIND       PRES   REMARKS
ALBUQUERQUE    PTCLDY    71  33  24 S22G36    29.91R
EL PASO        CLOUDY    86   6   5 SW17G25   29.85R
$$


........................KEY........................
SKY/WX - SKY CONDITION/WEATHER
TMP    - TEMPERATURE IN FAHRENHEIT
DP     - DEW POINT IN FAHRENHEIT
RH     - RELATIVE HUMIDITY IN PERCENT
WIND   - DIRECTION AND SPEED IN MILES PER HOUR (MPH)
VRB    - VARIABLE WIND DIRECTION
PRES   - MEAN SEA LEVEL PRESSURE IN INCHES OF MERCURY
         F - FALLING PRESSURE   R - RISING PRESSURE
         S - STEADY PRESSURE
VSB    - VISIBILITY IN MILES
HX     - HEAT INDEX IN FAHRENHEIT
WCI    - WIND CHILL INDEX IN FAHRENHEIT
TC     - TEMPERATURE IN CELSIUS WHICH IS ALSO KNOWN AS
         TEMPERATURE IN CENTIGRADE
AFB    - AIR FORCE BASE
         LUKE AFB IS LUKE AIR FORCE BASE
         DAVIS-MONTHAN IS DAVIS-MONTHAN AIR FORCE BASE
NAS    - NAVAL AIR STATION
         EL CENTRO NAS IS EL CENTRO NAVAL AIR STATION
N/A    - NOT AVAILABLE



USA.gov is the U.S. government's official web portal to all federal, state and local government web resources and services.